| time (UTC) | temp C | wind direction | speed KPH | gust KPH | rain 1hr cm | rain 24hr cm | rain mn cm | humidity % | barometer mb |
| 20260505214244 | 10 | 150 | 1.6 | 9.7 | 0.03 | 0.13 | 0.13 | 87 | 1007.7 |
| 20260505214044 | 10 | 209 | 3.2 | 9.7 | 0.03 | 0.13 | 0.13 | 86 | 1007.8 |
| 20260505213844 | 10 | 222 | 3.2 | 11.3 | 0.03 | 0.13 | 0.13 | 86 | 1007.8 |
| 20260505213643 | 10 | 142 | 1.6 | 11.3 | 0.00 | 0.10 | 0.10 | 86 | 1007.6 |
| 20260505213443 | 10 | 125 | 1.6 | 11.3 | 0.03 | 0.10 | 0.10 | 86 | 1007.5 |
| 20260505213243 | 11 | 128 | 3.2 | 11.3 | 0.03 | 0.10 | 0.10 | 85 | 1007.6 |
| 20260505213042 | 11 | 243 | 4.8 | 11.3 | 0.03 | 0.10 | 0.10 | 85 | 1007.5 |
| 20260505212842 | 11 | 247 | 3.2 | 9.7 | 0.05 | 0.10 | 0.10 | 85 | 1007.4 |
| 20260505212642 | 11 | 180 | 3.2 | 19.3 | 0.05 | 0.10 | 0.10 | 85 | 1007.3 |
| 20260505212441 | 10 | 235 | 1.6 | 19.3 | 0.05 | 0.10 | 0.10 | 85 | 1007.3 |
| 20260505212241 | 10 | 153 | 3.2 | 19.3 | 0.05 | 0.10 | 0.10 | 85 | 1007.2 |
| 20260505212041 | 10 | 128 | 4.8 | 19.3 | 0.05 | 0.10 | 0.10 | 85 | 1007.2 |
| 20260505211841 | 10 | 160 | 4.8 | 19.3 | 0.05 | 0.10 | 0.10 | 85 | 1007.1 |
| 20260505211640 | 10 | 199 | 3.2 | 19.3 | 0.05 | 0.10 | 0.10 | 86 | 1007.0 |
| 20260505211440 | 10 | 173 | 4.8 | 16.1 | 0.05 | 0.10 | 0.10 | 86 | 1007.0 |
| 20260505211240 | 10 | 170 | 4.8 | 16.1 | 0.05 | 0.10 | 0.10 | 86 | 1007.1 |
| 20260505211039 | 10 | 230 | 3.2 | 16.1 | 0.05 | 0.10 | 0.10 | 86 | 1007.1 |
| 20260505210839 | 10 | 317 | 4.8 | 16.1 | 0.05 | 0.10 | 0.10 | 86 | 1007.1 |
| 20260505210639 | 10 | 34 | 4.8 | 16.1 | 0.05 | 0.10 | 0.10 | 86 | 1007.0 |
| 20260505210438 | 10 | 42 | 3.2 | 19.3 | 0.05 | 0.10 | 0.10 | 87 | 1007.0 |
| 20260505210238 | 10 | 329 | 0.0 | 20.9 | 0.05 | 0.10 | 0.10 | 87 | 1006.9 |
| 20260505210038 | 10 | 25 | 1.6 | 20.9 | 0.08 | 0.10 | 0.10 | 87 | 1007.0 |
| 20260505205838 | 10 | 63 | 3.2 | 20.9 | 0.08 | 0.10 | 0.10 | 87 | 1007.0 |
| 20260505205637 | 10 | 139 | 4.8 | 20.9 | 0.08 | 0.10 | 0.10 | 87 | 1007.0 |
| 20260505205437 | 10 | 140 | 4.8 | 20.9 | 0.08 | 0.10 | 0.10 | 87 | 1007.0 |
| 20260505205237 | 10 | 154 | 3.2 | 12.9 | 0.10 | 0.10 | 0.10 | 87 | 1007.0 |
| 20260505205036 | 10 | 77 | 3.2 | 12.9 | 0.10 | 0.10 | 0.10 | 88 | 1006.9 |
| 20260505204836 | 10 | 96 | 3.2 | 14.5 | 0.10 | 0.10 | 0.10 | 87 | 1006.8 |
| 20260505204636 | 10 | 191 | 1.6 | 14.5 | 0.10 | 0.10 | 0.10 | 88 | 1006.9 |
| 20260505204435 | 10 | 172 | 3.2 | 14.5 | 0.10 | 0.10 | 0.10 | 87 | 1006.9 |
| 20260505204235 | 10 | 137 | 3.2 | 14.5 | 0.10 | 0.10 | 0.10 | 87 | 1006.9 |
| 20260505204035 | 11 | 93 | 4.8 | 14.5 | 0.10 | 0.10 | 0.10 | 86 | 1006.9 |
| 20260505203835 | 11 | 130 | 4.8 | 12.9 | 0.10 | 0.10 | 0.10 | 86 | 1006.8 |
| 20260505203634 | 11 | 54 | 4.8 | 12.9 | 0.10 | 0.10 | 0.10 | 86 | 1006.9 |
| 20260505203434 | 11 | 85 | 3.2 | 11.3 | 0.08 | 0.08 | 0.08 | 86 | 1007.0 |
| 20260505203234 | 11 | 94 | 3.2 | 11.3 | 0.08 | 0.08 | 0.08 | 85 | 1007.0 |
| 20260505203033 | 11 | 49 | 3.2 | 12.9 | 0.08 | 0.08 | 0.08 | 85 | 1007.0 |
| 20260505202833 | 11 | 89 | 1.6 | 12.9 | 0.05 | 0.05 | 0.05 | 85 | 1007.0 |
| 20260505202633 | 11 | 70 | 1.6 | 12.9 | 0.05 | 0.05 | 0.05 | 85 | 1006.9 |
| 20260505202432 | 11 | 63 | 3.2 | 12.9 | 0.05 | 0.05 | 0.05 | 86 | 1007.0 |
| 20260505202232 | 11 | 118 | 3.2 | 12.9 | 0.05 | 0.05 | 0.05 | 85 | 1006.9 |
| 20260505202032 | 11 | 250 | 1.6 | 11.3 | 0.05 | 0.05 | 0.05 | 85 | 1006.9 |
| 20260505201832 | 11 | 180 | 3.2 | 11.3 | 0.05 | 0.05 | 0.05 | 85 | 1006.9 |
| 20260505201631 | 11 | 164 | 3.2 | 11.3 | 0.05 | 0.05 | 0.05 | 85 | 1006.9 |
| 20260505201431 | 11 | 84 | 1.6 | 12.9 | 0.05 | 0.05 | 0.05 | 86 | 1006.8 |
| 20260505201231 | 11 | 60 | 3.2 | 16.1 | 0.05 | 0.05 | 0.05 | 85 | 1006.8 |
| 20260505201030 | 11 | 303 | 3.2 | 17.7 | 0.05 | 0.05 | 0.05 | 85 | 1006.8 |
| 20260505200830 | 11 | 38 | 3.2 | 17.7 | 0.05 | 0.05 | 0.05 | 85 | 1006.7 |
| 20260505200630 | 11 | 35 | 1.6 | 25.7 | 0.05 | 0.05 | 0.05 | 84 | 1006.7 |
| 20260505200429 | 11 | 29 | 4.8 | 25.7 | 0.05 | 0.05 | 0.05 | 83 | 1006.7 |
| 20260505200229 | 11 | 76 | 6.4 | 25.7 | 0.03 | 0.03 | 0.03 | 82 | 1006.8 |
| 20260505200029 | 11 | 133 | 8.0 | 25.7 | 0.03 | 0.03 | 0.03 | 81 | 1006.9 |
| 20260505195829 | 12 | 79 | 8.0 | 25.7 | 0.03 | 0.03 | 0.03 | 80 | 1006.8 |
| 20260505195628 | 12 | 70 | 9.7 | 19.3 | 0.03 | 0.03 | 0.03 | 79 | 1007.0 |
| 20260505195428 | 12 | 11 | 8.0 | 19.3 | 0.03 | 0.03 | 0.03 | 77 | 1006.8 |
| 20260505195228 | 12 | 56 | 6.4 | 17.7 | 0.00 | 0.00 | 0.00 | 76 | 1006.7 |
| 20260505195027 | 12 | 281 | 3.2 | 16.1 | 0.00 | 0.00 | 0.00 | 76 | 1006.7 |
| 20260505194827 | 13 | 261 | 3.2 | 16.1 | 0.00 | 0.00 | 0.00 | 74 | 1006.4 |
| 20260505194627 | 13 | 96 | 6.4 | 16.1 | 0.00 | 0.00 | 0.00 | 73 | 1006.3 |
| 20260505194426 | 13 | 306 | 6.4 | 16.1 | 0.00 | 0.00 | 0.00 | 71 | 1006.4 |
| 20260505194226 | 13 | 16 | 6.4 | 16.1 | 0.00 | 0.00 | 0.00 | 70 | 1006.3 |
| 20260505194026 | 13 | 110 | 6.4 | 17.7 | 0.00 | 0.00 | 0.00 | 69 | 1006.4 |
| 20260505193826 | 13 | 200 | 4.8 | 17.7 | 0.00 | 0.00 | 0.00 | 68 | 1006.3 |
| 20260505193625 | 14 | 278 | 4.8 | 17.7 | 0.00 | 0.00 | 0.00 | 66 | 1006.2 |
| 20260505193425 | 14 | 232 | 8.0 | 17.7 | 0.00 | 0.00 | 0.00 | 65 | 1006.0 |
| 20260505193225 | 14 | 235 | 6.4 | 19.3 | 0.00 | 0.00 | 0.00 | 64 | 1006.0 |
| 20260505193024 | 15 | 42 | 6.4 | 19.3 | 0.00 | 0.00 | 0.00 | 64 | 1006.0 |
| 20260505192824 | 15 | 290 | 8.0 | 19.3 | 0.00 | 0.00 | 0.00 | 64 | 1006.0 |
| 20260505192624 | 15 | 272 | 4.8 | 19.3 | 0.00 | 0.00 | 0.00 | 64 | 1006.1 |
| 20260505192423 | 15 | 321 | 8.0 | 19.3 | 0.00 | 0.00 | 0.00 | 63 | 1006.2 |
| 20260505192223 | 15 | 57 | 6.4 | 14.5 | 0.00 | 0.00 | 0.00 | 62 | 1006.3 |
| 20260505192023 | 16 | 348 | 6.4 | 14.5 | 0.00 | 0.00 | 0.00 | 61 | 1006.2 |
| 20260505191823 | 16 | 335 | 4.8 | 14.5 | 0.00 | 0.00 | 0.00 | 61 | 1006.2 |
| 20260505191622 | 16 | 25 | 4.8 | 14.5 | 0.00 | 0.00 | 0.00 | 60 | 1006.1 |
| 20260505191422 | 16 | 111 | 6.4 | 30.6 | 0.00 | 0.00 | 0.00 | 60 | 1006.1 |
| 20260505191222 | 16 | 264 | 4.8 | 32.2 | 0.00 | 0.00 | 0.00 | 61 | 1006.0 |
| 20260505191021 | 16 | 89 | 3.2 | 32.2 | 0.00 | 0.00 | 0.00 | 61 | 1006.1 |
| 20260505190821 | 16 | 54 | 4.8 | 32.2 | 0.00 | 0.00 | 0.00 | 61 | 1005.9 |
| 20260505190621 | 16 | 168 | 8.0 | 32.2 | 0.00 | 0.00 | 0.00 | 61 | 1005.9 |
| 20260505190420 | 16 | 109 | 6.4 | 32.2 | 0.00 | 0.00 | 0.00 | 61 | 1005.9 |
| 20260505190220 | 17 | 140 | 4.8 | 19.3 | 0.00 | 0.00 | 0.00 | 61 | 1005.8 |
| 20260505190020 | 16 | 108 | 3.2 | 19.3 | 0.00 | 0.00 | 0.00 | 62 | 1005.9 |
| 20260505185820 | 16 | 56 | 6.4 | 20.9 | 0.00 | 0.00 | 0.00 | 61 | 1005.8 |
| 20260505185619 | 16 | 253 | 6.4 | 22.5 | 0.00 | 0.00 | 0.00 | 61 | 1005.7 |
| 20260505185419 | 16 | 310 | 4.8 | 22.5 | 0.00 | 0.00 | 0.00 | 61 | 1005.7 |
| 20260505185219 | 16 | 245 | 6.4 | 22.5 | 0.00 | 0.00 | 0.00 | 61 | 1005.6 |
| 20260505185018 | 16 | 121 | 9.7 | 22.5 | 0.00 | 0.00 | 0.00 | 61 | 1005.6 |
| 20260505184818 | 16 | 127 | 8.0 | 22.5 | 0.00 | 0.00 | 0.00 | 61 | 1005.6 |
| 20260505184618 | 16 | 100 | 6.4 | 20.9 | 0.00 | 0.00 | 0.00 | 61 | 1005.5 |
| 20260505184417 | 16 | 116 | 3.2 | 19.3 | 0.00 | 0.00 | 0.00 | 61 | 1005.7 |
| 20260505184217 | 16 | 161 | 6.4 | 20.9 | 0.00 | 0.00 | 0.00 | 61 | 1005.6 |
| 20260505184017 | 16 | 158 | 8.0 | 20.9 | 0.00 | 0.00 | 0.00 | 60 | 1005.5 |
| 20260505183816 | 16 | 151 | 6.4 | 25.7 | 0.00 | 0.00 | 0.00 | 60 | 1005.5 |
| 20260505183616 | 16 | 71 | 4.8 | 25.7 | 0.00 | 0.00 | 0.00 | 61 | 1005.5 |
| 20260505183416 | 16 | 65 | 6.4 | 25.7 | 0.00 | 0.00 | 0.00 | 61 | 1005.5 |
| 20260505183216 | 16 | 137 | 9.7 | 25.7 | 0.00 | 0.00 | 0.00 | 60 | 1005.6 |
| 20260505183015 | 16 | 162 | 9.7 | 33.8 | 0.00 | 0.00 | 0.00 | 60 | 1005.6 |
| 20260505182815 | 17 | 212 | 8.0 | 33.8 | 0.00 | 0.00 | 0.00 | 60 | 1005.6 |
| 20260505182615 | 17 | 189 | 8.0 | 33.8 | 0.00 | 0.00 | 0.00 | 60 | 1005.7 |
| 20260505182416 | 17 | 172 | 11.3 | 33.8 | 0.00 | 0.00 | 0.00 | 61 | 1005.5 |
| 20260505182214 | 17 | 207 | 12.9 | 33.8 | 0.00 | 0.00 | 0.00 | 60 | 1005.5 |
| 20260505182014 | 17 | 222 | 12.9 | 33.8 | 0.00 | 0.00 | 0.00 | 59 | 1005.5 |
| 20260505181813 | 17 | 253 | 8.0 | 25.7 | 0.00 | 0.00 | 0.00 | 60 | 1005.6 |
| 20260505181613 | 17 | 265 | 4.8 | 19.3 | 0.00 | 0.00 | 0.00 | 60 | 1005.5 |
| 20260505181413 | 17 | 290 | 4.8 | 19.3 | 0.00 | 0.00 | 0.00 | 60 | 1005.4 |
| 20260505181213 | 17 | 280 | 6.4 | 19.3 | 0.00 | 0.00 | 0.00 | 60 | 1005.4 |
| 20260505181012 | 17 | 207 | 6.4 | 17.7 | 0.00 | 0.00 | 0.00 | 61 | 1005.3 |
| 20260505180812 | 17 | 221 | 6.4 | 17.7 | 0.00 | 0.00 | 0.00 | 62 | 1005.2 |
| 20260505180612 | 17 | 200 | 8.0 | 17.7 | 0.00 | 0.00 | 0.00 | 62 | 1005.1 |
| 20260505180411 | 17 | 230 | 6.4 | 17.7 | 0.00 | 0.00 | 0.00 | 63 | 1005.1 |
| 20260505180211 | 17 | 233 | 6.4 | 14.5 | 0.00 | 0.00 | 0.00 | 62 | 1005.1 |
| 20260505180011 | 17 | 146 | 6.4 | 14.5 | 0.00 | 0.00 | 0.00 | 63 | 1005.1 |
| 20260505175810 | 17 | 233 | 8.0 | 14.5 | 0.00 | 0.00 | 0.00 | 63 | 1005.0 |
| 20260505175610 | 17 | 216 | 8.0 | 14.5 | 0.00 | 0.00 | 0.00 | 63 | 1005.0 |
| 20260505175410 | 17 | 222 | 6.4 | 16.1 | 0.00 | 0.00 | 0.00 | 64 | 1004.9 |
| 20260505175210 | 17 | 203 | 4.8 | 17.7 | 0.00 | 0.00 | 0.00 | 65 | 1004.8 |
| 20260505175009 | 17 | 128 | 6.4 | 17.7 | 0.00 | 0.00 | 0.00 | 65 | 1004.8 |
| 20260505174809 | 17 | 147 | 6.4 | 17.7 | 0.00 | 0.00 | 0.00 | 65 | 1004.8 |
| 20260505174609 | 17 | 214 | 8.0 | 17.7 | 0.00 | 0.00 | 0.00 | 64 | 1004.8 |
| 20260505174408 | 17 | 203 | 8.0 | 19.3 | 0.00 | 0.00 | 0.00 | 65 | 1004.8 |
| 20260505174208 | 17 | 143 | 6.4 | 19.3 | 0.00 | 0.00 | 0.00 | 66 | 1004.8 |
| 20260505174008 | 17 | 216 | 8.0 | 19.3 | 0.00 | 0.00 | 0.00 | 65 | 1004.6 |
| 20260505173807 | 17 | 190 | 6.4 | 20.9 | 0.00 | 0.00 | 0.00 | 65 | 1004.7 |
| 20260505173607 | 17 | 167 | 4.8 | 30.6 | 0.00 | 0.00 | 0.00 | 66 | 1004.6 |
| 20260505173407 | 17 | 223 | 6.4 | 32.2 | 0.00 | 0.00 | 0.00 | 66 | 1004.6 |
| 20260505173207 | 17 | 243 | 8.0 | 32.2 | 0.00 | 0.00 | 0.00 | 65 | 1004.6 |
| 20260505173006 | 17 | 120 | 11.3 | 32.2 | 0.00 | 0.00 | 0.00 | 65 | 1004.7 |
| 20260505172806 | 17 | 227 | 9.7 | 32.2 | 0.00 | 0.00 | 0.00 | 66 | 1004.7 |
| 20260505172606 | 17 | 242 | 8.0 | 24.1 | 0.00 | 0.00 | 0.00 | 65 | 1004.7 |
| 20260505172405 | 17 | 150 | 6.4 | 24.1 | 0.00 | 0.00 | 0.00 | 66 | 1004.7 |
| 20260505172205 | 17 | 100 | 8.0 | 24.1 | 0.00 | 0.00 | 0.00 | 66 | 1004.7 |
| 20260505172005 | 17 | 158 | 9.7 | 33.8 | 0.00 | 0.00 | 0.00 | 66 | 1004.6 |
| 20260505171804 | 17 | 188 | 8.0 | 33.8 | 0.00 | 0.00 | 0.00 | 66 | 1004.5 |
| 20260505171604 | 17 | 241 | 9.7 | 33.8 | 0.00 | 0.00 | 0.00 | 66 | 1004.5 |
| 20260505171404 | 17 | 250 | 9.7 | 33.8 | 0.00 | 0.00 | 0.00 | 66 | 1004.5 |
| 20260505171204 | 17 | 97 | 11.3 | 33.8 | 0.00 | 0.00 | 0.00 | 67 | 1004.5 |
| 20260505171003 | 17 | 176 | 9.7 | 33.8 | 0.00 | 0.00 | 0.00 | 67 | 1004.5 |
| 20260505170803 | 17 | 264 | 9.7 | 22.5 | 0.00 | 0.00 | 0.00 | 67 | 1004.6 |
| 20260505170603 | 17 | 223 | 9.7 | 22.5 | 0.00 | 0.00 | 0.00 | 67 | 1004.6 |
| 20260505170402 | 17 | 286 | 9.7 | 22.5 | 0.00 | 0.00 | 0.00 | 68 | 1004.7 |
| 20260505170202 | 17 | 208 | 11.3 | 22.5 | 0.00 | 0.00 | 0.00 | 68 | 1004.6 |
| 20260505170002 | 17 | 160 | 4.8 | 22.5 | 0.00 | 0.00 | 0.00 | 68 | 1004.7 |
| 20260505165801 | 17 | 180 | 4.8 | 16.1 | 0.00 | 0.00 | 0.00 | 69 | 1004.6 |
| 20260505165601 | 17 | 211 | 6.4 | 16.1 | 0.00 | 0.00 | 0.00 | 68 | 1004.5 |
| 20260505165401 | 17 | 46 | 4.8 | 16.1 | 0.00 | 0.00 | 0.00 | 68 | 1004.6 |
| 20260505165201 | 17 | 249 | 6.4 | 17.7 | 0.00 | 0.00 | 0.00 | 69 | 1004.6 |
| 20260505165000 | 17 | 163 | 4.8 | 17.7 | 0.00 | 0.00 | 0.00 | 68 | 1004.6 |
| 20260505164800 | 17 | 44 | 4.8 | 17.7 | 0.00 | 0.00 | 0.00 | 68 | 1004.6 |
| 20260505164600 | 18 | 238 | 6.4 | 20.9 | 0.00 | 0.00 | 0.00 | 68 | 1004.5 |
| 20260505164359 | 18 | 67 | 6.4 | 22.5 | 0.00 | 0.00 | 0.00 | 68 | 1004.5 |
| 20260505164159 | 18 | 68 | 4.8 | 22.5 | 0.00 | 0.00 | 0.00 | 69 | 1004.5 |
| 20260505163959 | 17 | 70 | 4.8 | 22.5 | 0.00 | 0.00 | 0.00 | 70 | 1004.5 |
| 20260505163758 | 17 | 90 | 6.4 | 22.5 | 0.00 | 0.00 | 0.00 | 71 | 1004.3 |
| 20260505163558 | 17 | 251 | 4.8 | 22.5 | 0.00 | 0.00 | 0.00 | 71 | 1004.5 |
| 20260505163358 | 17 | 228 | 4.8 | 16.1 | 0.00 | 0.00 | 0.00 | 72 | 1004.3 |
| 20260505163158 | 17 | 120 | 6.4 | 16.1 | 0.00 | 0.00 | 0.00 | 72 | 1004.4 |
| 20260505162957 | 17 | 122 | 8.0 | 16.1 | 0.00 | 0.00 | 0.00 | 72 | 1004.3 |
| 20260505162757 | 17 | 178 | 6.4 | 16.1 | 0.00 | 0.00 | 0.00 | 73 | 1004.4 |
| 20260505162557 | 16 | 187 | 4.8 | 16.1 | 0.00 | 0.00 | 0.00 | 73 | 1004.6 |
| 20260505162356 | 16 | 233 | 8.0 | 19.3 | 0.00 | 0.00 | 0.00 | 73 | 1004.4 |
| 20260505162156 | 16 | 115 | 8.0 | 35.4 | 0.00 | 0.00 | 0.00 | 72 | 1004.5 |
| 20260505161956 | 17 | 187 | 6.4 | 35.4 | 0.00 | 0.00 | 0.00 | 72 | 1004.5 |
| 20260505161755 | 17 | 184 | 8.0 | 35.4 | 0.00 | 0.00 | 0.00 | 72 | 1004.5 |
| 20260505161555 | 17 | 165 | 11.3 | 35.4 | 0.00 | 0.00 | 0.00 | 72 | 1004.5 |
| 20260505161355 | 17 | 189 | 9.7 | 35.4 | 0.00 | 0.00 | 0.00 | 72 | 1004.6 |
| 20260505161155 | 17 | 231 | 9.7 | 29.0 | 0.00 | 0.00 | 0.00 | 72 | 1004.6 |
| 20260505160954 | 17 | 210 | 11.3 | 30.6 | 0.00 | 0.00 | 0.00 | 71 | 1004.5 |
| 20260505160754 | 17 | 199 | 9.7 | 30.6 | 0.00 | 0.00 | 0.00 | 72 | 1004.5 |
| 20260505160554 | 17 | 157 | 9.7 | 30.6 | 0.00 | 0.00 | 0.00 | 72 | 1004.3 |
| 20260505160353 | 17 | 155 | 11.3 | 30.6 | 0.00 | 0.00 | 0.00 | 72 | 1004.3 |
| 20260505160153 | 17 | 250 | 12.9 | 30.6 | 0.00 | 0.00 | 0.00 | 71 | 1004.2 |
| 20260505153349 | 18 | 261 | 6.4 | 17.7 | 0.00 | 0.00 | 0.00 | 72 | 1003.3 |
| 20260505153149 | 18 | 198 | 8.0 | 17.7 | 0.00 | 0.00 | 0.00 | 72 | 1003.3 |
| 20260505152948 | 18 | 119 | 6.4 | 17.7 | 0.00 | 0.00 | 0.00 | 73 | 1003.3 |
| 20260505152748 | 18 | 131 | 6.4 | 24.1 | 0.00 | 0.00 | 0.00 | 74 | 1003.3 |
| 20260505152548 | 18 | 157 | 8.0 | 24.1 | 0.00 | 0.00 | 0.00 | 74 | 1003.3 |
| 20260505152347 | 18 | 137 | 6.4 | 24.1 | 0.00 | 0.00 | 0.00 | 75 | 1003.3 |
| 20260505152147 | 17 | 254 | 8.0 | 24.1 | 0.00 | 0.00 | 0.00 | 75 | 1003.3 |
| 20260505151947 | 17 | 219 | 9.7 | 24.1 | 0.00 | 0.00 | 0.00 | 75 | 1003.3 |
| 20260505151746 | 17 | 239 | 6.4 | 20.9 | 0.00 | 0.00 | 0.00 | 76 | 1003.4 |
| 20260505151546 | 17 | 273 | 4.8 | 19.3 | 0.00 | 0.00 | 0.00 | 77 | 1003.4 |
| 20260505151346 | 17 | 211 | 6.4 | 20.9 | 0.00 | 0.00 | 0.00 | 77 | 1003.4 |
| 20260505151145 | 17 | 278 | 8.0 | 20.9 | 0.00 | 0.00 | 0.00 | 76 | 1003.3 |
| 20260505150945 | 17 | 172 | 8.0 | 25.7 | 0.00 | 0.00 | 0.00 | 77 | 1003.4 |
| 20260505150745 | 17 | 314 | 9.7 | 25.7 | 0.00 | 0.00 | 0.00 | 77 | 1003.5 |
| 20260505150545 | 17 | 96 | 9.7 | 29.0 | 0.00 | 0.00 | 0.00 | 76 | 1003.7 |
| 20260505150344 | 17 | 128 | 8.0 | 29.0 | 0.00 | 0.00 | 0.00 | 76 | 1003.4 |
| 20260505150144 | 17 | 207 | 11.3 | 29.0 | 0.00 | 0.00 | 0.00 | 76 | 1003.5 |
| 20260505140536 | 17 | 212 | 9.7 | 27.4 | 0.00 | 0.00 | 0.00 | 78 | 1001.7 |
| 20260505140335 | 17 | 198 | 11.3 | 27.4 | 0.00 | 0.00 | 0.00 | 77 | 1001.6 |
| 20260505140135 | 17 | 217 | 11.3 | 25.7 | 0.00 | 0.00 | 0.00 | 78 | 1001.8 |
| 20260505130247 | 16 | 186 | 8.0 | 29.0 | 0.00 | 0.00 | 0.00 | 78 | 1001.4 |
| 20260505124845 | 16 | 240 | 8.0 | 35.4 | 0.00 | 0.00 | 0.00 | 78 | 1000.8 |
| 20260505124644 | 16 | 200 | 11.3 | 35.4 | 0.00 | 0.00 | 0.00 | 78 | 1000.7 |
| 20260505124444 | 16 | 191 | 12.9 | 35.4 | 0.00 | 0.00 | 0.00 | 78 | 1000.8 |
| 20260505124244 | 16 | 199 | 11.3 | 25.7 | 0.00 | 0.00 | 0.00 | 78 | 1000.7 |
| 20260505124044 | 16 | 211 | 11.3 | 27.4 | 0.00 | 0.00 | 0.00 | 78 | 1000.7 |
| 20260505123843 | 16 | 196 | 8.0 | 27.4 | 0.00 | 0.00 | 0.00 | 78 | 1000.6 |
| 20260505123643 | 16 | 188 | 11.3 | 27.4 | 0.00 | 0.00 | 0.00 | 78 | 1000.7 |
| 20260505123443 | 16 | 206 | 12.9 | 27.4 | 0.00 | 0.00 | 0.00 | 78 | 1000.7 |
| 20260505123242 | 16 | 213 | 12.9 | 27.4 | 0.00 | 0.00 | 0.00 | 78 | 1000.7 |
| 20260505123042 | 16 | 205 | 11.3 | 25.7 | 0.00 | 0.00 | 0.00 | 78 | 1000.6 |
| 20260505122842 | 16 | 215 | 9.7 | 22.5 | 0.00 | 0.00 | 0.00 | 78 | 1000.7 |
| 20260505122641 | 16 | 215 | 11.3 | 25.7 | 0.00 | 0.00 | 0.00 | 78 | 1000.7 |
| 20260505122441 | 16 | 227 | 9.7 | 25.7 | 0.00 | 0.00 | 0.00 | 78 | 1000.7 |
| 20260505122241 | 16 | 214 | 9.7 | 25.7 | 0.00 | 0.00 | 0.00 | 78 | 1000.7 |
| 20260505122041 | 16 | 224 | 9.7 | 25.7 | 0.00 | 0.00 | 0.00 | 78 | 1000.7 |
| 20260505121840 | 16 | 214 | 12.9 | 30.6 | 0.00 | 0.00 | 0.00 | 78 | 1000.6 |
| 20260505121640 | 16 | 211 | 12.9 | 35.4 | 0.00 | 0.00 | 0.00 | 78 | 1000.6 |
| 20260505121440 | 16 | 187 | 11.3 | 37.0 | 0.00 | 0.00 | 0.00 | 78 | 1000.6 |
| 20260505121239 | 16 | 194 | 11.3 | 37.0 | 0.00 | 0.00 | 0.00 | 78 | 1000.6 |
| 20260505121039 | 16 | 201 | 12.9 | 37.0 | 0.00 | 0.00 | 0.00 | 78 | 1000.6 |
| 20260505120839 | 16 | 210 | 12.9 | 37.0 | 0.00 | 0.00 | 0.00 | 78 | 1000.6 |
| 20260505120638 | 16 | 194 | 12.9 | 37.0 | 0.00 | 0.00 | 0.00 | 79 | 1000.5 |
| 20260505120438 | 15 | 205 | 9.7 | 32.2 | 0.00 | 0.00 | 0.00 | 79 | 1000.7 |
| 20260505120238 | 15 | 228 | 9.7 | 32.2 | 0.00 | 0.00 | 0.00 | 79 | 1000.5 |
| 20260505120038 | 15 | 223 | 12.9 | 32.2 | 0.00 | 0.00 | 0.00 | 78 | 1000.6 |
| 20260505115837 | 15 | 232 | 11.3 | 32.2 | 0.00 | 0.00 | 0.00 | 78 | 1000.5 |
| 20260505115637 | 16 | 213 | 8.0 | 25.7 | 0.00 | 0.00 | 0.00 | 78 | 1000.5 |
| 20260505115437 | 16 | 188 | 8.0 | 25.7 | 0.00 | 0.00 | 0.00 | 78 | 1000.6 |
| 20260505115236 | 16 | 214 | 9.7 | 25.7 | 0.00 | 0.00 | 0.00 | 78 | 1000.6 |
| 20260505115036 | 16 | 207 | 9.7 | 33.8 | 0.00 | 0.00 | 0.00 | 78 | 1000.6 |
| 20260505114836 | 16 | 193 | 9.7 | 33.8 | 0.00 | 0.00 | 0.00 | 78 | 1000.7 |
| 20260505114635 | 16 | 220 | 9.7 | 33.8 | 0.00 | 0.00 | 0.00 | 78 | 1000.5 |
| 20260505114435 | 16 | 214 | 9.7 | 33.8 | 0.00 | 0.00 | 0.00 | 78 | 1000.5 |
| 20260505114235 | 16 | 194 | 9.7 | 33.8 | 0.00 | 0.00 | 0.00 | 78 | 1000.5 |
| 20260505114035 | 16 | 216 | 9.7 | 33.8 | 0.00 | 0.00 | 0.00 | 78 | 1000.5 |
| 20260505113834 | 16 | 219 | 9.7 | 25.7 | 0.00 | 0.00 | 0.00 | 78 | 1000.5 |
| 20260505113634 | 16 | 233 | 6.4 | 25.7 | 0.00 | 0.00 | 0.00 | 78 | 1000.5 |
| 20260505113434 | 16 | 218 | 6.4 | 25.7 | 0.00 | 0.00 | 0.00 | 77 | 1000.4 |
| 20260505113233 | 16 | 222 | 9.7 | 25.7 | 0.00 | 0.00 | 0.00 | 77 | 1000.4 |
| 20260505113033 | 16 | 171 | 11.3 | 25.7 | 0.00 | 0.00 | 0.00 | 77 | 1000.3 |
| 20260505112833 | 16 | 224 | 8.0 | 24.1 | 0.00 | 0.00 | 0.00 | 77 | 1000.4 |
| 20260505112632 | 16 | 214 | 9.7 | 25.7 | 0.00 | 0.00 | 0.00 | 77 | 1000.4 |
| 20260505112432 | 16 | 197 | 9.7 | 27.4 | 0.00 | 0.00 | 0.00 | 77 | 1000.3 |
| 20260505112232 | 16 | 223 | 8.0 | 27.4 | 0.00 | 0.00 | 0.00 | 77 | 1000.4 |
| 20260505112032 | 15 | 233 | 8.0 | 27.4 | 0.00 | 0.00 | 0.00 | 77 | 1000.3 |
| 20260505111831 | 16 | 253 | 8.0 | 27.4 | 0.00 | 0.00 | 0.00 | 77 | 1000.3 |
| 20260505111631 | 16 | 230 | 11.3 | 27.4 | 0.00 | 0.00 | 0.00 | 77 | 1000.2 |
| 20260505111431 | 15 | 226 | 9.7 | 25.7 | 0.00 | 0.00 | 0.00 | 78 | 1000.1 |
| 20260505111230 | 15 | 236 | 8.0 | 25.7 | 0.00 | 0.00 | 0.00 | 78 | 1000.2 |
| 20260505111030 | 15 | 197 | 11.3 | 25.7 | 0.00 | 0.00 | 0.00 | 78 | 1000.2 |
| 20260505110830 | 15 | 194 | 9.7 | 32.2 | 0.00 | 0.00 | 0.00 | 78 | 1000.2 |
| 20260505110629 | 15 | 228 | 6.4 | 32.2 | 0.00 | 0.00 | 0.00 | 78 | 1000.2 |
| 20260505110429 | 15 | 237 | 8.0 | 32.2 | 0.00 | 0.00 | 0.00 | 78 | 1000.2 |
| 20260505110229 | 15 | 207 | 9.7 | 32.2 | 0.00 | 0.00 | 0.00 | 78 | 1000.2 |
| 20260505102023 | 14 | 201 | 11.3 | 32.2 | 0.00 | 0.00 | 0.00 | 84 | 999.9 |
| 20260505101822 | 14 | 195 | 9.7 | 24.1 | 0.00 | 0.00 | 0.00 | 84 | 999.9 |
| 20260505101622 | 14 | 194 | 9.7 | 24.1 | 0.00 | 0.00 | 0.00 | 85 | 999.8 |
| 20260505101422 | 14 | 206 | 11.3 | 20.9 | 0.00 | 0.00 | 0.00 | 85 | 999.8 |
| 20260505101221 | 14 | 218 | 9.7 | 19.3 | 0.00 | 0.00 | 0.00 | 85 | 999.8 |
| 20260505101021 | 13 | 211 | 6.4 | 19.3 | 0.00 | 0.00 | 0.00 | 86 | 999.8 |
| 20260505100821 | 13 | 196 | 8.0 | 17.7 | 0.00 | 0.00 | 0.00 | 86 | 999.8 |
| 20260505100620 | 13 | 196 | 6.4 | 17.7 | 0.00 | 0.00 | 0.00 | 86 | 999.8 |
| 20260505100420 | 13 | 230 | 6.4 | 17.7 | 0.00 | 0.00 | 0.00 | 86 | 999.7 |
| 20260505100220 | 13 | 225 | 6.4 | 17.7 | 0.00 | 0.00 | 0.00 | 86 | 999.5 |
| 20260505100019 | 13 | 229 | 4.8 | 17.7 | 0.00 | 0.00 | 0.00 | 86 | 999.5 |
| 20260505095819 | 13 | 230 | 4.8 | 17.7 | 0.00 | 0.00 | 0.00 | 86 | 999.4 |
| 20260505095619 | 13 | 224 | 9.7 | 17.7 | 0.00 | 0.00 | 0.00 | 86 | 999.4 |
| 20260505095419 | 13 | 208 | 9.7 | 17.7 | 0.00 | 0.00 | 0.00 | 87 | 999.2 |
| 20260505095218 | 13 | 211 | 8.0 | 17.7 | 0.00 | 0.00 | 0.00 | 87 | 999.2 |
| 20260505095018 | 13 | 219 | 9.7 | 17.7 | 0.00 | 0.00 | 0.00 | 87 | 999.3 |
| 20260505094818 | 13 | 206 | 8.0 | 17.7 | 0.00 | 0.00 | 0.00 | 87 | 999.2 |
| 20260505094617 | 13 | 198 | 6.4 | 17.7 | 0.00 | 0.00 | 0.00 | 87 | 999.3 |
| 20260505094417 | 13 | 204 | 8.0 | 17.7 | 0.00 | 0.00 | 0.00 | 87 | 999.2 |
| 20260505094217 | 13 | 218 | 6.4 | 17.7 | 0.00 | 0.00 | 0.00 | 87 | 999.2 |
| 20260505094017 | 13 | 214 | 4.8 | 14.5 | 0.00 | 0.00 | 0.00 | 87 | 999.3 |
| 20260505093816 | 13 | 225 | 4.8 | 14.5 | 0.00 | 0.00 | 0.00 | 87 | 999.3 |
| 20260505093616 | 13 | 216 | 6.4 | 14.5 | 0.00 | 0.00 | 0.00 | 87 | 999.3 |
| 20260505093416 | 13 | 212 | 4.8 | 14.5 | 0.00 | 0.00 | 0.00 | 87 | 999.4 |
| 20260505093215 | 13 | 224 | 6.4 | 16.1 | 0.00 | 0.00 | 0.00 | 87 | 999.3 |
| 20260505093015 | 13 | 200 | 8.0 | 17.7 | 0.00 | 0.00 | 0.00 | 87 | 999.3 |
| 20260505092815 | 13 | 213 | 8.0 | 19.3 | 0.00 | 0.00 | 0.00 | 87 | 999.3 |
| 20260505092614 | 13 | 212 | 8.0 | 19.3 | 0.00 | 0.00 | 0.00 | 87 | 999.3 |
| 20260505092414 | 13 | 212 | 8.0 | 19.3 | 0.00 | 0.00 | 0.00 | 87 | 999.2 |
| 20260505092214 | 13 | 220 | 6.4 | 19.3 | 0.00 | 0.00 | 0.00 | 87 | 999.2 |
| 20260505092013 | 13 | 218 | 8.0 | 19.3 | 0.00 | 0.00 | 0.00 | 87 | 999.2 |
| 20260505091813 | 13 | 218 | 8.0 | 19.3 | 0.00 | 0.00 | 0.00 | 87 | 999.2 |
| 20260505091613 | 13 | 220 | 9.7 | 19.3 | 0.00 | 0.00 | 0.00 | 87 | 999.2 |
| 20260505091413 | 13 | 207 | 11.3 | 19.3 | 0.00 | 0.00 | 0.00 | 87 | 999.2 |
| 20260505091212 | 13 | 224 | 9.7 | 19.3 | 0.00 | 0.00 | 0.00 | 86 | 999.2 |
| 20260505091012 | 13 | 224 | 6.4 | 24.1 | 0.00 | 0.00 | 0.00 | 86 | 999.2 |
| 20260505090812 | 13 | 209 | 8.0 | 24.1 | 0.00 | 0.00 | 0.00 | 86 | 999.2 |
| 20260505090611 | 13 | 208 | 9.7 | 24.1 | 0.00 | 0.00 | 0.00 | 86 | 999.2 |
| 20260505090411 | 13 | 203 | 8.0 | 24.1 | 0.00 | 0.00 | 0.00 | 86 | 999.2 |
| 20260505090211 | 13 | 207 | 11.3 | 24.1 | 0.00 | 0.00 | 0.00 | 86 | 999.2 |
| 20260505090010 | 13 | 220 | 8.0 | 24.1 | 0.00 | 0.00 | 0.00 | 86 | 999.2 |
| 20260505085810 | 13 | 223 | 9.7 | 24.1 | 0.00 | 0.00 | 0.00 | 86 | 999.1 |
| 20260505085610 | 13 | 208 | 11.3 | 24.1 | 0.00 | 0.00 | 0.00 | 86 | 999.1 |
| 20260505085410 | 13 | 199 | 9.7 | 20.9 | 0.00 | 0.00 | 0.00 | 86 | 999.1 |
| 20260505085209 | 13 | 215 | 8.0 | 20.9 | 0.00 | 0.00 | 0.00 | 86 | 999.0 |
| 20260505085009 | 13 | 226 | 8.0 | 19.3 | 0.00 | 0.00 | 0.00 | 85 | 999.1 |
| 20260505084809 | 13 | 205 | 11.3 | 19.3 | 0.00 | 0.00 | 0.00 | 85 | 999.0 |
| 20260505084608 | 14 | 190 | 9.7 | 19.3 | 0.00 | 0.00 | 0.00 | 85 | 999.0 |
| 20260505084408 | 14 | 213 | 8.0 | 20.9 | 0.00 | 0.00 | 0.00 | 85 | 999.0 |
| 20260505084208 | 14 | 234 | 6.4 | 22.5 | 0.00 | 0.00 | 0.00 | 85 | 998.9 |
| 20260505084007 | 14 | 227 | 8.0 | 22.5 | 0.00 | 0.00 | 0.00 | 85 | 999.0 |
| 20260505083807 | 14 | 207 | 11.3 | 22.5 | 0.00 | 0.00 | 0.00 | 85 | 999.0 |
| 20260505083607 | 14 | 217 | 9.7 | 22.5 | 0.00 | 0.00 | 0.00 | 85 | 999.0 |
| 20260505083407 | 14 | 213 | 9.7 | 22.5 | 0.00 | 0.00 | 0.00 | 85 | 999.0 |
| 20260505083206 | 14 | 220 | 9.7 | 22.5 | 0.00 | 0.00 | 0.00 | 84 | 998.9 |
| 20260505083006 | 14 | 216 | 8.0 | 22.5 | 0.00 | 0.00 | 0.00 | 84 | 999.0 |
| 20260505082806 | 14 | 208 | 8.0 | 19.3 | 0.00 | 0.00 | 0.00 | 84 | 998.9 |
| 20260505082605 | 14 | 216 | 9.7 | 20.9 | 0.00 | 0.00 | 0.00 | 84 | 999.0 |
| 20260505082405 | 14 | 220 | 9.7 | 20.9 | 0.00 | 0.00 | 0.00 | 84 | 999.0 |
| 20260505082205 | 14 | 219 | 8.0 | 20.9 | 0.00 | 0.00 | 0.00 | 84 | 999.0 |
| 20260505082004 | 14 | 219 | 9.7 | 22.5 | 0.00 | 0.00 | 0.00 | 84 | 999.0 |
| 20260505081804 | 14 | 211 | 9.7 | 22.5 | 0.00 | 0.00 | 0.00 | 84 | 999.0 |
| 20260505081604 | 15 | 210 | 8.0 | 22.5 | 0.00 | 0.00 | 0.00 | 84 | 999.1 |
| 20260505081404 | 15 | 218 | 9.7 | 22.5 | 0.00 | 0.00 | 0.00 | 83 | 999.2 |
| 20260505081203 | 15 | 222 | 9.7 | 22.5 | 0.00 | 0.00 | 0.00 | 83 | 999.2 |
| 20260505081003 | 15 | 219 | 11.3 | 22.5 | 0.00 | 0.00 | 0.00 | 83 | 999.3 |
| 20260505080803 | 15 | 211 | 9.7 | 22.5 | 0.00 | 0.00 | 0.00 | 83 | 999.3 |
| 20260505080602 | 15 | 213 | 9.7 | 17.7 | 0.00 | 0.00 | 0.00 | 83 | 999.3 |
| 20260505080402 | 15 | 218 | 9.7 | 17.7 | 0.00 | 0.00 | 0.00 | 83 | 999.4 |
| 20260505080202 | 15 | 222 | 4.8 | 12.9 | 0.00 | 0.00 | 0.00 | 82 | 999.5 |
| 20260505080002 | 15 | 211 | 8.0 | 12.9 | 0.00 | 0.00 | 0.00 | 82 | 999.4 |
| 20260505075801 | 15 | 227 | 6.4 | 12.9 | 0.00 | 0.00 | 0.00 | 82 | 999.5 |
| 20260505075601 | 15 | 243 | 6.4 | 12.9 | 0.00 | 0.00 | 0.00 | 82 | 999.5 |
| 20260505075401 | 15 | 238 | 4.8 | 16.1 | 0.00 | 0.00 | 0.00 | 82 | 999.5 |
| 20260505075200 | 15 | 228 | 6.4 | 19.3 | 0.00 | 0.00 | 0.00 | 82 | 999.5 |
| 20260505075000 | 15 | 223 | 4.8 | 20.9 | 0.00 | 0.00 | 0.00 | 82 | 999.6 |
| 20260505074800 | 15 | 207 | 4.8 | 25.7 | 0.00 | 0.00 | 0.00 | 82 | 999.6 |
| 20260505074559 | 15 | 219 | 8.0 | 25.7 | 0.00 | 0.00 | 0.00 | 81 | 999.5 |
| 20260505074359 | 15 | 214 | 8.0 | 25.7 | 0.00 | 0.00 | 0.00 | 81 | 999.7 |
| 20260505074159 | 15 | 213 | 8.0 | 25.7 | 0.00 | 0.00 | 0.00 | 81 | 999.6 |
| 20260505073958 | 15 | 228 | 8.0 | 25.7 | 0.00 | 0.00 | 0.00 | 81 | 999.6 |
| 20260505073758 | 15 | 225 | 8.0 | 24.1 | 0.00 | 0.00 | 0.00 | 81 | 999.5 |
| 20260505073558 | 15 | 221 | 11.3 | 24.1 | 0.00 | 0.00 | 0.00 | 81 | 999.5 |
| 20260505073358 | 15 | 219 | 9.7 | 24.1 | 0.00 | 0.00 | 0.00 | 81 | 999.5 |
| 20260505073157 | 15 | 214 | 8.0 | 24.1 | 0.00 | 0.00 | 0.00 | 81 | 999.5 |
| 20260505072957 | 15 | 212 | 9.7 | 24.1 | 0.00 | 0.00 | 0.00 | 81 | 999.5 |
| 20260505072757 | 15 | 211 | 14.5 | 24.1 | 0.00 | 0.00 | 0.00 | 81 | 999.5 |
| 20260505072556 | 15 | 211 | 12.9 | 22.5 | 0.00 | 0.00 | 0.00 | 81 | 999.5 |
| 20260505072356 | 15 | 227 | 9.7 | 24.1 | 0.00 | 0.00 | 0.00 | 81 | 999.5 |
| 20260505072156 | 15 | 238 | 9.7 | 24.1 | 0.00 | 0.00 | 0.00 | 81 | 999.7 |
| 20260505071955 | 15 | 226 | 11.3 | 24.1 | 0.00 | 0.00 | 0.00 | 82 | 999.6 |
| 20260505071755 | 15 | 218 | 11.3 | 24.1 | 0.00 | 0.00 | 0.00 | 82 | 999.5 |
| 20260505071555 | 15 | 224 | 12.9 | 29.0 | 0.00 | 0.00 | 0.00 | 81 | 999.6 |
| 20260505071355 | 15 | 222 | 9.7 | 29.0 | 0.00 | 0.00 | 0.00 | 81 | 999.5 |
| 20260505071154 | 15 | 209 | 11.3 | 29.0 | 0.00 | 0.00 | 0.00 | 81 | 999.5 |
| 20260505070954 | 16 | 206 | 12.9 | 29.0 | 0.00 | 0.00 | 0.00 | 81 | 999.4 |
| 20260505070754 | 16 | 202 | 14.5 | 29.0 | 0.00 | 0.00 | 0.00 | 81 | 999.4 |
| 20260505070553 | 16 | 219 | 9.7 | 27.4 | 0.00 | 0.00 | 0.00 | 81 | 999.6 |
| 20260505070353 | 16 | 223 | 12.9 | 25.7 | 0.00 | 0.00 | 0.00 | 81 | 999.4 |
| 20260505070153 | 16 | 224 | 12.9 | 32.2 | 0.00 | 0.00 | 0.00 | 81 | 999.5 |
| 20260505065952 | 16 | 227 | 11.3 | 32.2 | 0.00 | 0.00 | 0.00 | 81 | 999.5 |
| 20260505065752 | 16 | 220 | 9.7 | 32.2 | 0.00 | 0.00 | 0.00 | 81 | 999.4 |
| 20260505065552 | 16 | 213 | 11.3 | 32.2 | 0.00 | 0.00 | 0.00 | 81 | 999.5 |
| 20260505065352 | 16 | 217 | 11.3 | 32.2 | 0.00 | 0.00 | 0.00 | 81 | 999.5 |
| 20260505065151 | 16 | 216 | 11.3 | 25.7 | 0.00 | 0.00 | 0.00 | 81 | 999.5 |
| 20260505064951 | 16 | 226 | 12.9 | 25.7 | 0.00 | 0.00 | 0.00 | 81 | 999.5 |
| 20260505064751 | 16 | 222 | 11.3 | 24.1 | 0.00 | 0.00 | 0.00 | 81 | 999.5 |
| 20260505064550 | 16 | 206 | 11.3 | 24.1 | 0.00 | 0.00 | 0.00 | 81 | 999.6 |
| 20260505064350 | 16 | 214 | 11.3 | 27.4 | 0.00 | 0.00 | 0.00 | 81 | 999.7 |
| 20260505064150 | 16 | 225 | 11.3 | 27.4 | 0.00 | 0.00 | 0.00 | 81 | 999.6 |
| 20260505063949 | 16 | 223 | 9.7 | 27.4 | 0.00 | 0.00 | 0.00 | 81 | 999.7 |
| 20260505063749 | 16 | 208 | 12.9 | 27.4 | 0.00 | 0.00 | 0.00 | 80 | 999.7 |
| 20260505063549 | 16 | 211 | 11.3 | 27.4 | 0.00 | 0.00 | 0.00 | 81 | 999.8 |
| 20260505063349 | 16 | 223 | 8.0 | 17.7 | 0.00 | 0.00 | 0.00 | 80 | 999.7 |
| 20260505063148 | 16 | 223 | 9.7 | 17.7 | 0.00 | 0.00 | 0.00 | 80 | 999.7 |
| 20260505062948 | 16 | 220 | 9.7 | 20.9 | 0.00 | 0.00 | 0.00 | 80 | 999.8 |
| 20260505062748 | 16 | 209 | 8.0 | 24.1 | 0.00 | 0.00 | 0.00 | 80 | 999.8 |
| 20260505062547 | 16 | 218 | 8.0 | 29.0 | 0.00 | 0.00 | 0.00 | 80 | 999.9 |
| 20260505062347 | 16 | 235 | 8.0 | 29.0 | 0.00 | 0.00 | 0.00 | 80 | 999.8 |
| 20260505062147 | 16 | 224 | 11.3 | 29.0 | 0.00 | 0.00 | 0.00 | 80 | 999.8 |
| 20260505061946 | 16 | 225 | 11.3 | 29.0 | 0.00 | 0.00 | 0.00 | 80 | 999.9 |
| 20260505061746 | 16 | 215 | 9.7 | 29.0 | 0.00 | 0.00 | 0.00 | 80 | 999.8 |
| 20260505061546 | 16 | 213 | 8.0 | 22.5 | 0.00 | 0.00 | 0.00 | 80 | 1000.0 |
| 20260505061345 | 16 | 221 | 8.0 | 22.5 | 0.00 | 0.00 | 0.00 | 80 | 1000.0 |
| 20260505061145 | 16 | 210 | 9.7 | 22.5 | 0.00 | 0.00 | 0.00 | 80 | 1000.0 |
| 20260505060945 | 16 | 212 | 11.3 | 22.5 | 0.00 | 0.00 | 0.00 | 81 | 1000.0 |
| 20260505060745 | 16 | 217 | 11.3 | 22.5 | 0.00 | 0.00 | 0.00 | 81 | 1000.0 |
| 20260505060544 | 15 | 222 | 9.7 | 22.5 | 0.00 | 0.00 | 0.00 | 81 | 1000.0 |
| 20260505060344 | 15 | 222 | 8.0 | 22.5 | 0.00 | 0.00 | 0.00 | 81 | 1000.0 |
| 20260505060144 | 15 | 220 | 8.0 | 22.5 | 0.00 | 0.00 | 0.00 | 81 | 1000.1 |
| 20260505055943 | 15 | 210 | 9.7 | 22.5 | 0.00 | 0.00 | 0.00 | 81 | 1000.1 |
| 20260505055743 | 15 | 209 | 8.0 | 22.5 | 0.00 | 0.00 | 0.00 | 81 | 1000.1 |
| 20260505055543 | 15 | 220 | 9.7 | 22.5 | 0.00 | 0.00 | 0.00 | 81 | 1000.1 |
| 20260505055342 | 15 | 216 | 12.9 | 22.5 | 0.00 | 0.00 | 0.00 | 81 | 1000.2 |
| 20260505055142 | 15 | 215 | 11.3 | 22.5 | 0.00 | 0.00 | 0.00 | 81 | 1000.2 |
| 20260505054942 | 15 | 224 | 8.0 | 24.1 | 0.00 | 0.00 | 0.00 | 80 | 1000.2 |
| 20260505054742 | 15 | 220 | 8.0 | 24.1 | 0.00 | 0.00 | 0.00 | 80 | 1000.2 |
| 20260505054541 | 15 | 212 | 8.0 | 24.1 | 0.00 | 0.00 | 0.00 | 80 | 1000.2 |
| 20260505054341 | 15 | 217 | 11.3 | 25.7 | 0.00 | 0.00 | 0.00 | 80 | 1000.2 |
| 20260505054141 | 15 | 223 | 8.0 | 25.7 | 0.00 | 0.00 | 0.00 | 80 | 1000.2 |
| 20260505053940 | 15 | 214 | 11.3 | 29.0 | 0.00 | 0.00 | 0.00 | 79 | 1000.3 |
| 20260505053740 | 15 | 214 | 12.9 | 30.6 | 0.00 | 0.00 | 0.00 | 79 | 1000.3 |
| 20260505053540 | 15 | 208 | 11.3 | 30.6 | 0.00 | 0.00 | 0.00 | 79 | 1000.3 |
| 20260505053339 | 15 | 211 | 12.9 | 30.6 | 0.00 | 0.00 | 0.00 | 79 | 1000.3 |
| 20260505053139 | 15 | 204 | 14.5 | 30.6 | 0.00 | 0.00 | 0.00 | 79 | 1000.3 |
| 20260505052939 | 15 | 218 | 9.7 | 24.1 | 0.00 | 0.00 | 0.00 | 80 | 1000.4 |
| 20260505052739 | 15 | 229 | 6.4 | 20.9 | 0.00 | 0.00 | 0.00 | 80 | 1000.4 |
| 20260505052538 | 15 | 235 | 9.7 | 20.9 | 0.00 | 0.00 | 0.00 | 80 | 1000.5 |
| 20260505052338 | 15 | 215 | 8.0 | 20.9 | 0.00 | 0.00 | 0.00 | 80 | 1000.4 |
| 20260505052138 | 15 | 219 | 8.0 | 25.7 | 0.00 | 0.00 | 0.00 | 81 | 1000.4 |
| 20260505051937 | 15 | 197 | 8.0 | 27.4 | 0.00 | 0.00 | 0.00 | 81 | 1000.5 |
| 20260505051737 | 15 | 209 | 9.7 | 27.4 | 0.00 | 0.00 | 0.00 | 81 | 1000.5 |
| 20260505051537 | 15 | 214 | 11.3 | 27.4 | 0.00 | 0.00 | 0.00 | 81 | 1000.4 |
| 20260505051337 | 15 | 209 | 9.7 | 27.4 | 0.00 | 0.00 | 0.00 | 80 | 1000.5 |
| 20260505051136 | 15 | 228 | 11.3 | 27.4 | 0.00 | 0.00 | 0.00 | 80 | 1000.4 |
| 20260505050936 | 15 | 244 | 8.0 | 24.1 | 0.00 | 0.00 | 0.00 | 80 | 1000.4 |
| 20260505050736 | 15 | 238 | 6.4 | 20.9 | 0.00 | 0.00 | 0.00 | 80 | 1000.3 |
| 20260505050535 | 15 | 217 | 8.0 | 27.4 | 0.00 | 0.00 | 0.00 | 80 | 1000.3 |
| 20260505050335 | 15 | 215 | 8.0 | 33.8 | 0.00 | 0.00 | 0.00 | 80 | 1000.3 |
| 20260505050135 | 15 | 221 | 9.7 | 33.8 | 0.00 | 0.00 | 0.00 | 79 | 1000.4 |
| 20260505041728 | 16 | 218 | 12.9 | 33.8 | 0.00 | 0.00 | 0.00 | 77 | 1000.7 |
| 20260505041528 | 16 | 214 | 9.7 | 27.4 | 0.00 | 0.00 | 0.00 | 77 | 1000.7 |
| 20260505041327 | 16 | 227 | 11.3 | 27.4 | 0.00 | 0.00 | 0.00 | 76 | 1000.7 |
| 20260505041127 | 16 | 205 | 9.7 | 27.4 | 0.00 | 0.00 | 0.00 | 76 | 1000.6 |
| 20260505040927 | 16 | 221 | 11.3 | 30.6 | 0.00 | 0.00 | 0.00 | 76 | 1000.5 |
| 20260505040727 | 16 | 197 | 14.5 | 32.2 | 0.00 | 0.00 | 0.00 | 76 | 1000.4 |
| 20260505040526 | 16 | 171 | 14.5 | 32.2 | 0.00 | 0.00 | 0.00 | 76 | 1000.5 |
| 20260505040326 | 16 | 194 | 16.1 | 32.2 | 0.00 | 0.00 | 0.00 | 76 | 1000.5 |
| 20260505040126 | 16 | 201 | 16.1 | 32.2 | 0.00 | 0.00 | 0.00 | 76 | 1000.4 |
| 20260505035925 | 16 | 198 | 14.5 | 32.2 | 0.00 | 0.00 | 0.00 | 76 | 1000.5 |
| 20260505035725 | 16 | 208 | 9.7 | 32.2 | 0.00 | 0.00 | 0.00 | 76 | 1000.4 |
| 20260505035525 | 16 | 198 | 11.3 | 32.2 | 0.00 | 0.00 | 0.00 | 77 | 1000.4 |
| 20260505035324 | 16 | 192 | 12.9 | 32.2 | 0.00 | 0.00 | 0.00 | 77 | 1000.5 |
| 20260505035124 | 16 | 207 | 8.0 | 30.6 | 0.00 | 0.00 | 0.00 | 77 | 1000.5 |
| 20260505034924 | 16 | 230 | 9.7 | 27.4 | 0.00 | 0.00 | 0.00 | 78 | 1000.4 |
| 20260505034724 | 16 | 206 | 8.0 | 19.3 | 0.00 | 0.00 | 0.00 | 78 | 1000.4 |
| 20260505034523 | 16 | 218 | 8.0 | 19.3 | 0.00 | 0.00 | 0.00 | 78 | 1000.4 |
| 20260505034323 | 16 | 234 | 8.0 | 22.5 | 0.00 | 0.00 | 0.00 | 78 | 1000.4 |
| 20260505034123 | 16 | 215 | 9.7 | 22.5 | 0.00 | 0.00 | 0.00 | 78 | 1000.4 |
| 20260505033922 | 16 | 215 | 9.7 | 24.1 | 0.00 | 0.00 | 0.00 | 78 | 1000.4 |
| 20260505033722 | 16 | 222 | 11.3 | 24.1 | 0.00 | 0.00 | 0.00 | 77 | 1000.4 |
| 20260505033522 | 16 | 217 | 11.3 | 29.0 | 0.00 | 0.00 | 0.00 | 77 | 1000.5 |
| 20260505033321 | 16 | 216 | 11.3 | 29.0 | 0.00 | 0.00 | 0.00 | 77 | 1000.5 |
| 20260505033121 | 16 | 211 | 11.3 | 29.0 | 0.00 | 0.00 | 0.00 | 77 | 1000.4 |
| 20260505032921 | 16 | 220 | 9.7 | 29.0 | 0.00 | 0.00 | 0.00 | 77 | 1000.5 |
| 20260505032721 | 16 | 226 | 9.7 | 29.0 | 0.00 | 0.00 | 0.00 | 77 | 1000.5 |
| 20260505032520 | 16 | 226 | 8.0 | 27.4 | 0.00 | 0.00 | 0.00 | 77 | 1000.5 |
| 20260505032320 | 16 | 209 | 11.3 | 27.4 | 0.00 | 0.00 | 0.00 | 77 | 1000.5 |
| 20260505032120 | 16 | 221 | 12.9 | 27.4 | 0.00 | 0.00 | 0.00 | 77 | 1000.7 |
| 20260505031919 | 16 | 219 | 12.9 | 27.4 | 0.00 | 0.00 | 0.00 | 77 | 1000.7 |
| 20260505031719 | 16 | 213 | 14.5 | 24.1 | 0.00 | 0.00 | 0.00 | 78 | 1000.7 |
| 20260505031519 | 16 | 218 | 11.3 | 30.6 | 0.00 | 0.00 | 0.00 | 78 | 1000.7 |
| 20260505031318 | 16 | 216 | 11.3 | 30.6 | 0.00 | 0.00 | 0.00 | 78 | 1000.8 |
| 20260505031118 | 16 | 215 | 12.9 | 30.6 | 0.00 | 0.00 | 0.00 | 78 | 1000.9 |
| 20260505030918 | 16 | 214 | 16.1 | 30.6 | 0.00 | 0.00 | 0.00 | 78 | 1001.0 |
| 20260505030718 | 16 | 208 | 16.1 | 30.6 | 0.00 | 0.00 | 0.00 | 78 | 1001.0 |
| 20260505030517 | 16 | 203 | 12.9 | 30.6 | 0.00 | 0.00 | 0.00 | 78 | 1001.1 |
| 20260505030317 | 15 | 209 | 12.9 | 29.0 | 0.00 | 0.00 | 0.00 | 78 | 1001.1 |
| 20260505030117 | 15 | 212 | 12.9 | 29.0 | 0.00 | 0.00 | 0.00 | 78 | 1001.1 |
| 20260505025916 | 15 | 216 | 9.7 | 29.0 | 0.00 | 0.00 | 0.00 | 78 | 1001.0 |
| 20260505025716 | 16 | 208 | 11.3 | 29.0 | 0.00 | 0.00 | 0.00 | 78 | 1001.0 |
| 20260505025516 | 16 | 212 | 14.5 | 29.0 | 0.00 | 0.00 | 0.00 | 78 | 1000.9 |
| 20260505025315 | 16 | 212 | 14.5 | 29.0 | 0.00 | 0.00 | 0.00 | 78 | 1001.0 |
| 20260505025115 | 16 | 211 | 12.9 | 25.7 | 0.00 | 0.00 | 0.00 | 78 | 1000.9 |
| 20260505024915 | 16 | 219 | 12.9 | 25.7 | 0.00 | 0.00 | 0.00 | 78 | 1001.0 |
| 20260505024715 | 16 | 216 | 12.9 | 25.7 | 0.00 | 0.00 | 0.00 | 77 | 1000.8 |
| 20260505024514 | 16 | 212 | 11.3 | 25.7 | 0.00 | 0.00 | 0.00 | 77 | 1000.9 |
| 20260505024314 | 16 | 213 | 9.7 | 22.5 | 0.00 | 0.00 | 0.00 | 77 | 1000.9 |
| 20260505024114 | 16 | 214 | 8.0 | 22.5 | 0.00 | 0.00 | 0.00 | 76 | 1000.9 |
| 20260505023913 | 16 | 207 | 9.7 | 22.5 | 0.00 | 0.00 | 0.00 | 76 | 1000.8 |
| 20260505023713 | 16 | 195 | 11.3 | 22.5 | 0.00 | 0.00 | 0.00 | 76 | 1000.8 |
| 20260505023513 | 16 | 218 | 9.7 | 24.1 | 0.00 | 0.00 | 0.00 | 76 | 1000.8 |
| 20260505023312 | 16 | 231 | 8.0 | 24.1 | 0.00 | 0.00 | 0.00 | 75 | 1000.9 |
| 20260505023112 | 16 | 218 | 9.7 | 25.7 | 0.00 | 0.00 | 0.00 | 75 | 1000.8 |
| 20260505022912 | 16 | 214 | 11.3 | 27.4 | 0.00 | 0.00 | 0.00 | 75 | 1000.8 |
| 20260505022711 | 16 | 215 | 11.3 | 29.0 | 0.00 | 0.00 | 0.00 | 74 | 1000.9 |
| 20260505022511 | 16 | 222 | 9.7 | 29.0 | 0.00 | 0.00 | 0.00 | 74 | 1000.9 |
| 20260505022311 | 16 | 221 | 11.3 | 29.0 | 0.00 | 0.00 | 0.00 | 74 | 1000.9 |
| 20260505022111 | 16 | 220 | 12.9 | 30.6 | 0.00 | 0.00 | 0.00 | 74 | 1000.9 |
| 20260505021910 | 16 | 215 | 14.5 | 30.6 | 0.00 | 0.00 | 0.00 | 74 | 1000.9 |
| 20260505021710 | 16 | 215 | 14.5 | 30.6 | 0.00 | 0.00 | 0.00 | 73 | 1000.9 |
| 20260505021510 | 16 | 213 | 17.7 | 30.6 | 0.00 | 0.00 | 0.00 | 73 | 1000.9 |
| 20260505021309 | 16 | 205 | 16.1 | 30.6 | 0.00 | 0.00 | 0.00 | 72 | 1001.0 |
| 20260505021109 | 16 | 207 | 14.5 | 30.6 | 0.00 | 0.00 | 0.00 | 72 | 1001.0 |
| 20260505020909 | 16 | 202 | 12.9 | 30.6 | 0.00 | 0.00 | 0.00 | 72 | 1000.9 |
| 20260505020708 | 16 | 201 | 12.9 | 35.4 | 0.00 | 0.00 | 0.00 | 71 | 1001.0 |
| 20260505020508 | 17 | 219 | 12.9 | 37.0 | 0.00 | 0.00 | 0.00 | 71 | 1001.0 |
| 20260505020308 | 17 | 224 | 12.9 | 37.0 | 0.00 | 0.00 | 0.00 | 70 | 1001.0 |
| 20260505020108 | 17 | 218 | 14.5 | 37.0 | 0.00 | 0.00 | 0.00 | 70 | 1001.0 |
| 20260505015907 | 17 | 209 | 14.5 | 37.0 | 0.00 | 0.00 | 0.00 | 70 | 1001.0 |
| 20260505015707 | 17 | 209 | 12.9 | 27.4 | 0.00 | 0.00 | 0.00 | 69 | 1001.1 |
| 20260505015507 | 17 | 224 | 9.7 | 27.4 | 0.00 | 0.00 | 0.00 | 68 | 1001.0 |
| 20260505015306 | 17 | 223 | 11.3 | 25.7 | 0.00 | 0.00 | 0.00 | 68 | 1001.1 |
| 20260505015106 | 17 | 216 | 12.9 | 25.7 | 0.00 | 0.00 | 0.00 | 68 | 1001.1 |
| 20260505014906 | 17 | 221 | 11.3 | 24.1 | 0.00 | 0.00 | 0.00 | 67 | 1001.1 |
| 20260505014705 | 17 | 220 | 11.3 | 24.1 | 0.00 | 0.00 | 0.00 | 66 | 1001.0 |
| 20260505014505 | 17 | 221 | 11.3 | 25.7 | 0.00 | 0.00 | 0.00 | 65 | 1001.0 |
| 20260505014307 | 17 | 221 | 11.3 | 25.7 | 0.00 | 0.00 | 0.00 | 64 | 1000.9 |
| 20260505014105 | 17 | 224 | 9.7 | 25.7 | 0.00 | 0.00 | 0.00 | 63 | 1000.9 |
| 20260505013904 | 17 | 219 | 12.9 | 27.4 | 0.00 | 0.00 | 0.00 | 63 | 1000.9 |
| 20260505013704 | 17 | 210 | 14.5 | 53.1 | 0.00 | 0.00 | 0.00 | 62 | 1001.1 |
| 20260505013504 | 18 | 211 | 16.1 | 53.1 | 0.00 | 0.00 | 0.00 | 61 | 1001.1 |
| 20260505013303 | 18 | 220 | 12.9 | 53.1 | 0.00 | 0.00 | 0.00 | 61 | 1001.1 |
| 20260505013103 | 18 | 213 | 16.1 | 53.1 | 0.00 | 0.00 | 0.00 | 60 | 1001.1 |
| 20260505012903 | 18 | 213 | 17.7 | 53.1 | 0.00 | 0.00 | 0.00 | 60 | 1001.2 |
| 20260505012702 | 18 | 206 | 12.9 | 27.4 | 0.00 | 0.00 | 0.00 | 60 | 1001.1 |
| 20260505012502 | 18 | 213 | 12.9 | 27.4 | 0.00 | 0.00 | 0.00 | 59 | 1001.1 |
| 20260505012304 | 18 | 215 | 9.7 | 24.1 | 0.00 | 0.00 | 0.00 | 59 | 1001.1 |
| 20260505012102 | 18 | 218 | 9.7 | 24.1 | 0.00 | 0.00 | 0.00 | 59 | 1001.0 |
| 20260505011901 | 18 | 219 | 8.0 | 24.1 | 0.00 | 0.00 | 0.00 | 59 | 1000.9 |
| 20260505011701 | 18 | 213 | 9.7 | 24.1 | 0.00 | 0.00 | 0.00 | 59 | 1000.8 |
| 20260505011501 | 18 | 210 | 6.4 | 24.1 | 0.00 | 0.00 | 0.00 | 59 | 1000.8 |
| 20260505011300 | 18 | 217 | 9.7 | 20.9 | 0.00 | 0.00 | 0.00 | 58 | 1000.8 |
| 20260505011100 | 18 | 210 | 8.0 | 20.9 | 0.00 | 0.00 | 0.00 | 58 | 1000.8 |
| 20260505010900 | 18 | 210 | 8.0 | 20.9 | 0.00 | 0.00 | 0.00 | 58 | 1000.8 |
| 20260505010659 | 18 | 211 | 8.0 | 20.9 | 0.00 | 0.00 | 0.00 | 57 | 1000.8 |
| 20260505010459 | 18 | 218 | 6.4 | 20.9 | 0.00 | 0.00 | 0.00 | 57 | 1000.8 |
| 20260505010259 | 18 | 218 | 9.7 | 20.9 | 0.00 | 0.00 | 0.00 | 56 | 1000.8 |
| 20260505010059 | 18 | 220 | 9.7 | 20.9 | 0.00 | 0.00 | 0.00 | 56 | 1000.8 |
| 20260505005858 | 18 | 225 | 6.4 | 16.1 | 0.00 | 0.00 | 0.00 | 55 | 1000.7 |
| 20260505005658 | 18 | 233 | 3.2 | 19.3 | 0.00 | 0.00 | 0.00 | 55 | 1000.8 |
| 20260505005458 | 18 | 224 | 3.2 | 19.3 | 0.00 | 0.00 | 0.00 | 54 | 1000.7 |
| 20260505005257 | 18 | 224 | 4.8 | 19.3 | 0.00 | 0.00 | 0.00 | 54 | 1000.7 |
| 20260505005057 | 18 | 220 | 4.8 | 19.3 | 0.00 | 0.00 | 0.00 | 54 | 1000.8 |
| 20260505004857 | 18 | 213 | 8.0 | 19.3 | 0.00 | 0.00 | 0.00 | 54 | 1000.8 |
| 20260505004656 | 18 | 221 | 6.4 | 16.1 | 0.00 | 0.00 | 0.00 | 53 | 1000.7 |
| 20260505004456 | 18 | 226 | 6.4 | 12.9 | 0.00 | 0.00 | 0.00 | 53 | 1000.7 |
| 20260505004256 | 18 | 223 | 6.4 | 11.3 | 0.00 | 0.00 | 0.00 | 52 | 1000.7 |
| 20260505004056 | 18 | 220 | 4.8 | 14.5 | 0.00 | 0.00 | 0.00 | 52 | 1000.7 |
| 20260505003855 | 18 | 220 | 6.4 | 19.3 | 0.00 | 0.00 | 0.00 | 52 | 1000.7 |
| 20260505003655 | 19 | 212 | 6.4 | 19.3 | 0.00 | 0.00 | 0.00 | 52 | 1000.7 |
| 20260505003455 | 19 | 214 | 8.0 | 19.3 | 0.00 | 0.00 | 0.00 | 51 | 1000.7 |
| 20260505003254 | 19 | 211 | 9.7 | 19.3 | 0.00 | 0.00 | 0.00 | 51 | 1000.7 |
| 20260505003054 | 19 | 209 | 6.4 | 19.3 | 0.00 | 0.00 | 0.00 | 51 | 1000.7 |
| 20260505002854 | 19 | 205 | 6.4 | 16.1 | 0.00 | 0.00 | 0.00 | 50 | 1000.7 |
| 20260505002653 | 19 | 201 | 6.4 | 16.1 | 0.00 | 0.00 | 0.00 | 50 | 1000.7 |
| 20260505002453 | 19 | 198 | 6.4 | 16.1 | 0.00 | 0.00 | 0.00 | 50 | 1000.7 |
| 20260505002253 | 19 | 218 | 6.4 | 19.3 | 0.00 | 0.00 | 0.00 | 49 | 1000.7 |
| 20260505002053 | 19 | 211 | 9.7 | 19.3 | 0.00 | 0.00 | 0.00 | 49 | 1000.7 |
| 20260505001852 | 20 | 218 | 8.0 | 19.3 | 0.00 | 0.00 | 0.00 | 49 | 1000.7 |
| 20260505001652 | 20 | 214 | 8.0 | 19.3 | 0.00 | 0.00 | 0.00 | 49 | 1000.7 |
| 20260505001452 | 20 | 221 | 6.4 | 19.3 | 0.00 | 0.00 | 0.00 | 48 | 1000.7 |
| 20260505001251 | 20 | 221 | 4.8 | 17.7 | 0.00 | 0.00 | 0.00 | 48 | 1000.7 |
| 20260505001051 | 20 | 218 | 6.4 | 17.7 | 0.00 | 0.00 | 0.00 | 48 | 1000.7 |
| 20260505000851 | 20 | 220 | 8.0 | 17.7 | 0.00 | 0.00 | 0.00 | 48 | 1000.7 |
| 20260505000650 | 20 | 226 | 8.0 | 17.7 | 0.00 | 0.00 | 0.00 | 47 | 1000.7 |
| 20260505000450 | 20 | 244 | 4.8 | 17.7 | 0.00 | 0.00 | 0.00 | 47 | 1000.8 |
| 20260505000250 | 20 | 232 | 8.0 | 17.7 | 0.00 | 0.00 | 0.00 | 46 | 1000.8 |
| 20260505000050 | 20 | 227 | 6.4 | 17.7 | 0.00 | 0.00 | 0.00 | 46 | 1000.7 |
| 20260504235849 | 20 | 231 | 6.4 | 17.7 | 0.00 | 0.00 | 0.00 | 46 | 1000.7 |
| 20260504235649 | 20 | 213 | 8.0 | 20.9 | 0.00 | 0.00 | 0.00 | 46 | 1000.7 |
| 20260504235449 | 20 | 215 | 8.0 | 22.5 | 0.00 | 0.00 | 0.00 | 45 | 1000.7 |
| 20260504235248 | 20 | 211 | 6.4 | 22.5 | 0.00 | 0.00 | 0.00 | 45 | 1000.7 |
| 20260504235048 | 20 | 213 | 6.4 | 22.5 | 0.00 | 0.00 | 0.00 | 45 | 1000.7 |
| 20260504234848 | 20 | 215 | 6.4 | 22.5 | 0.00 | 0.00 | 0.00 | 45 | 1000.8 |
| 20260504234647 | 20 | 222 | 4.8 | 22.5 | 0.00 | 0.00 | 0.00 | 44 | 1000.8 |
| 20260504234447 | 20 | 226 | 6.4 | 17.7 | 0.00 | 0.00 | 0.00 | 44 | 1000.8 |
| 20260504234247 | 20 | 218 | 6.4 | 25.7 | 0.00 | 0.00 | 0.00 | 44 | 1000.8 |
| 20260504234047 | 20 | 225 | 8.0 | 25.7 | 0.00 | 0.00 | 0.00 | 43 | 1000.9 |
| 20260504233846 | 20 | 224 | 8.0 | 25.7 | 0.00 | 0.00 | 0.00 | 43 | 1001.0 |
| 20260504233646 | 20 | 210 | 9.7 | 25.7 | 0.00 | 0.00 | 0.00 | 43 | 1001.0 |
| 20260504233446 | 20 | 203 | 11.3 | 25.7 | 0.00 | 0.00 | 0.00 | 42 | 1001.1 |
| 20260504233245 | 21 | 215 | 9.7 | 27.4 | 0.00 | 0.00 | 0.00 | 42 | 1001.1 |
| 20260504233045 | 21 | 198 | 8.0 | 27.4 | 0.00 | 0.00 | 0.00 | 42 | 1001.3 |
| 20260504232845 | 21 | 206 | 9.7 | 30.6 | 0.00 | 0.00 | 0.00 | 41 | 1001.2 |
| 20260504232644 | 21 | 211 | 12.9 | 30.6 | 0.00 | 0.00 | 0.00 | 41 | 1001.2 |
| 20260504232444 | 21 | 205 | 11.3 | 38.6 | 0.00 | 0.00 | 0.00 | 41 | 1001.3 |
| 20260504232244 | 21 | 207 | 12.9 | 38.6 | 0.00 | 0.00 | 0.00 | 40 | 1001.2 |
| 20260504232044 | 21 | 227 | 9.7 | 38.6 | 0.00 | 0.00 | 0.00 | 40 | 1001.1 |
| 20260504231843 | 21 | 231 | 8.0 | 38.6 | 0.00 | 0.00 | 0.00 | 40 | 1001.3 |
| 20260504231643 | 21 | 196 | 11.3 | 38.6 | 0.00 | 0.00 | 0.00 | 40 | 1001.3 |
| 20260504231443 | 21 | 161 | 12.9 | 38.6 | 0.00 | 0.00 | 0.00 | 39 | 1001.1 |
| 20260504231242 | 21 | 162 | 11.3 | 30.6 | 0.00 | 0.00 | 0.00 | 39 | 1001.4 |
| 20260504231042 | 21 | 205 | 11.3 | 32.2 | 0.00 | 0.00 | 0.00 | 39 | 1001.3 |
| 20260504230842 | 21 | 219 | 11.3 | 32.2 | 0.00 | 0.00 | 0.00 | 39 | 1001.5 |
| 20260504230641 | 21 | 189 | 11.3 | 32.2 | 0.00 | 0.00 | 0.00 | 38 | 1001.3 |
| 20260504230441 | 21 | 202 | 12.9 | 48.3 | 0.00 | 0.00 | 0.00 | 38 | 1001.5 |
| 20260504230241 | 21 | 204 | 16.1 | 48.3 | 0.00 | 0.00 | 0.00 | 38 | 1001.4 |
| 20260504230040 | 21 | 213 | 12.9 | 48.3 | 0.00 | 0.00 | 0.00 | 38 | 1001.4 |
| 20260504225840 | 21 | 185 | 12.9 | 48.3 | 0.00 | 0.00 | 0.00 | 38 | 1001.5 |
| 20260504225640 | 21 | 184 | 16.1 | 48.3 | 0.00 | 0.00 | 0.00 | 38 | 1001.5 |
| 20260504225440 | 21 | 197 | 16.1 | 48.3 | 0.00 | 0.00 | 0.00 | 38 | 1001.5 |
| 20260504225239 | 21 | 204 | 11.3 | 43.5 | 0.00 | 0.00 | 0.00 | 39 | 1001.7 |
| 20260504225039 | 21 | 214 | 9.7 | 43.5 | 0.00 | 0.00 | 0.00 | 40 | 1001.7 |
| 20260504224839 | 21 | 219 | 8.0 | 43.5 | 0.00 | 0.00 | 0.00 | 40 | 1001.7 |
| 20260504224638 | 21 | 204 | 12.9 | 43.5 | 0.00 | 0.00 | 0.00 | 39 | 1001.7 |
| 20260504224438 | 21 | 188 | 17.7 | 45.1 | 0.00 | 0.00 | 0.00 | 38 | 1001.7 |
| 20260504224238 | 21 | 191 | 17.7 | 46.7 | 0.00 | 0.00 | 0.00 | 38 | 1001.7 |
| 20260504224038 | 21 | 215 | 11.3 | 46.7 | 0.00 | 0.00 | 0.00 | 38 | 1001.6 |
| 20260504223837 | 21 | 215 | 12.9 | 46.7 | 0.00 | 0.00 | 0.00 | 39 | 1001.7 |
| 20260504223637 | 22 | 179 | 16.1 | 46.7 | 0.00 | 0.00 | 0.00 | 38 | 1001.8 |
| 20260504223437 | 22 | 160 | 14.5 | 46.7 | 0.00 | 0.00 | 0.00 | 38 | 1001.8 |
| 20260504223236 | 22 | 210 | 12.9 | 46.7 | 0.00 | 0.00 | 0.00 | 38 | 1001.8 |
| 20260504223036 | 22 | 219 | 9.7 | 46.7 | 0.00 | 0.00 | 0.00 | 38 | 1001.7 |
| 20260504222836 | 22 | 221 | 12.9 | 46.7 | 0.00 | 0.00 | 0.00 | 38 | 1001.7 |
| 20260504222635 | 22 | 205 | 12.9 | 46.7 | 0.00 | 0.00 | 0.00 | 38 | 1001.8 |
| 20260504222435 | 22 | 195 | 17.7 | 46.7 | 0.00 | 0.00 | 0.00 | 38 | 1001.8 |
| 20260504222235 | 22 | 200 | 17.7 | 43.5 | 0.00 | 0.00 | 0.00 | 38 | 1001.8 |
| 20260504222035 | 22 | 207 | 16.1 | 43.5 | 0.00 | 0.00 | 0.00 | 37 | 1001.8 |
| 20260504221834 | 22 | 204 | 17.7 | 43.5 | 0.00 | 0.00 | 0.00 | 37 | 1001.6 |
| 20260504221634 | 22 | 212 | 16.1 | 43.5 | 0.00 | 0.00 | 0.00 | 37 | 1001.8 |
| 20260504221434 | 23 | 183 | 14.5 | 32.2 | 0.00 | 0.00 | 0.00 | 38 | 1001.7 |
| 20260504221233 | 23 | 190 | 12.9 | 32.2 | 0.00 | 0.00 | 0.00 | 37 | 1001.7 |
| 20260504221033 | 23 | 205 | 11.3 | 32.2 | 0.00 | 0.00 | 0.00 | 38 | 1001.9 |
| 20260504220833 | 23 | 211 | 11.3 | 32.2 | 0.00 | 0.00 | 0.00 | 38 | 1001.6 |
| 20260504220632 | 23 | 209 | 14.5 | 40.2 | 0.00 | 0.00 | 0.00 | 38 | 1001.7 |
| 20260504220432 | 23 | 215 | 11.3 | 40.2 | 0.00 | 0.00 | 0.00 | 39 | 1001.7 |
| 20260504220232 | 23 | 225 | 11.3 | 40.2 | 0.00 | 0.00 | 0.00 | 40 | 1001.7 |
| 20260504220031 | 22 | 192 | 11.3 | 40.2 | 0.00 | 0.00 | 0.00 | 40 | 1001.7 |
| 20260504215831 | 22 | 206 | 16.1 | 40.2 | 0.00 | 0.00 | 0.00 | 39 | 1001.6 |
| 20260504215631 | 22 | 191 | 19.3 | 40.2 | 0.00 | 0.00 | 0.00 | 39 | 1001.7 |
| 20260504215431 | 22 | 195 | 17.7 | 32.2 | 0.00 | 0.00 | 0.00 | 38 | 1001.7 |
| 20260504215230 | 22 | 209 | 12.9 | 51.5 | 0.00 | 0.00 | 0.00 | 40 | 1001.7 |
| 20260504215030 | 22 | 195 | 12.9 | 51.5 | 0.00 | 0.00 | 0.00 | 40 | 1001.7 |
| 20260504214830 | 22 | 231 | 12.9 | 51.5 | 0.00 | 0.00 | 0.00 | 40 | 1001.8 |
| 20260504214629 | 22 | 168 | 16.1 | 51.5 | 0.00 | 0.00 | 0.00 | 40 | 1001.7 |
| 20260504214429 | 22 | 194 | 17.7 | 51.5 | 0.00 | 0.00 | 0.00 | 39 | 1001.8 |